User: anonymous   Login
Location: Unspecified
(0.0000°N, 0.0000°E)
Time: 07:26:36
(UTC+00:00)
Language:

Optus B3 - Orbit

View from above orbital plane
View from above orbital plane
View from above satellite
View from above satellite

Ground track
Ground track

The orbit data is extracted from the following two-line orbital elements,

1 23227U 94055A   15064.63065412 -.00000090  00000-0  00000+0 0  9991
2 23227 006.0127 056.8925 0004588 278.5388 218.8404 01.00273993 75110
Epoch (UTC): 05 March 2015 15:08:08
Eccentricity: 0.0004588
inclination: 6.0127°
perigee height: 35766 km
apogee height: 35805 km
right ascension of ascending node: 56.8925°
argument of perigee: 278.5388°
revolutions per day: 1.00273993
mean anomaly at epoch: 218.8404°
orbit number at epoch: 7511

The dashed part of the orbit path shows where the satellite is in the earth's shadow,  

DLR